Regional Weather Roundup
Issued by NWS

Home | Current Version | Previous Version | Graphics & Text | Print | Product List | Glossary On
Versions: 1 2 3 4 5 6 7 8 9 10 11 12 13 14 15 16 17 18 19 20 21 22 23 24 25 26 27 28 29 30 31 32 33 34 35 36 37 38 39 40 41 42 43 44 45 46 47 48 49 50
027
ASUS43 KOAX 261210
RWRNE

WEATHER ROUNDUP FOR NEBRASKA
NATIONAL WEATHER SERVICE OMAHA NE
700 AM CDT THU MAY 26 2016

NOTES: SATELLITE DATA IS BEING USED TO AUGMENT CLOUD COVER ABOVE
       12000 FEET.
       "FAIR" INDICATES FEW OR NO CLOUDS BELOW 12,000 FEET WITH NO
       SIGNIFICANT WEATHER AND/OR OBSTRUCTIONS TO VISIBILITY.

  * THESE STATIONS DO NOT REPORT WEATHER SUCH AS RAIN...SNOW OR FOG.

NEZ001>004-019>022-054>056-261300-
NEBRASKA PANHANDLE

CITY           SKY/WX    TMP DP  RH WIND       PRES   REMARKS
SCOTTSBLUFF    CLEAR     43  39  86 NW7       29.95R
6HR MIN TEMP:  42; 6HR MAX TEMP:  50;

ALLIANCE       CLEAR     36  35  96 W6        29.93R WCI  31
6HR MIN TEMP:  35; 6HR MAX TEMP:  49;

CHADRON        CLEAR     40  37  89 S6        29.92R
6HR MIN TEMP:  38; 6HR MAX TEMP:  48;

KIMBALL        CLEAR     41  39  93 W6        29.98S
SIDNEY         CLOUDY    47  42  83 W7        29.98R
6HR MIN TEMP:  44; 6HR MAX TEMP:  49;

$$

NEZ057>060-069>072-079>082-261300-
SOUTHWEST NEBRASKA

CITY           SKY/WX    TMP DP  RH WIND       PRES   REMARKS
NORTH PLATTE   PTCLDY    52  51  97 S8        29.90F THUNDER
6HR MIN TEMP:  48; 6HR MAX TEMP:  56; 6HR PCP:  0.01;

IMPERIAL       CLOUDY    53  49  86 CALM      29.91F
6HR MIN TEMP:  50; 6HR MAX TEMP:  54;

LEXINGTON      CLOUDY    54  52  94 NW5       29.91R
MCCOOK         CLOUDY    51  49  92 W3        29.91S
6HR MIN TEMP:  48; 6HR MAX TEMP:  58;

OGALLALA       MOCLDY    51  48  92 W3        29.93R THUNDER
$$

NEZ005>010-023>029-035>040-094-261300-
NORTH CENTRAL NEBRASKA

CITY           SKY/WX    TMP DP  RH WIND       PRES   REMARKS
VALENTINE      PTCLDY    47  44  90 W6        29.89F
6HR MIN TEMP:  46; 6HR MAX TEMP:  52;

AINSWORTH      CLOUDY    51  49  93 CALM      29.89S
BROKEN BOW     PTCLDY    54  50  86 CALM      29.90S
6HR MIN TEMP:  51; 6HR MAX TEMP:  59; 6HR PCP: TRACE;

O`NEILL        PTCLDY    54  51  91 CALM      29.90S
ORD            PTCLDY    53  51  93 NW7       29.89R
6HR MIN TEMP:  52; 6HR MAX TEMP:  59;

THEDFORD       CLOUDY    53  49  83 W6        29.92R
$$

NEZ041-046>049-061>064-073>077-083>087-261300-
SOUTH CENTRAL NEBRASKA

CITY           SKY/WX    TMP DP  RH WIND       PRES   REMARKS
GRAND ISLAND   PTCLDY    55  53  93 CALM      29.89S
6HR MIN TEMP:  53; 6HR MAX TEMP:  61;

AURORA         MOCLDY    56  55  97 CALM      29.88S
HASTINGS       PTCLDY    53  51  93 N3        29.89R
6HR MIN TEMP:  53; 6HR MAX TEMP:  62;

HEBRON         CLEAR     55  54  94 CALM      29.88R
HOLDREGE       PTCLDY    53  51  94 CALM      29.89R
KEARNEY *      MOCLDY    54  50  87 CALM      29.90R
YORK           CLEAR     55  54  94 SE3       29.89S
$$

NEZ011>018-030>034-042>045-261300-
NORTHEAST NEBRASKA

CITY           SKY/WX    TMP DP  RH WIND       PRES   REMARKS
NORFOLK        CLEAR     56  53  90 W5        29.90R
6HR MIN TEMP:  52; 6HR MAX TEMP:  63;

ALBION         CLOUDY    56  52  86 CALM      29.90S
BLAIR          SUNNY     60  57  89 CALM      29.88F
FREMONT        CLEAR     59  57  93 CALM      29.89R
TEKAMAH        SUNNY     58  56  93 SW5       29.89R
6HR MIN TEMP:  55; 6HR MAX TEMP:  68; 6HR PCP:  0.14;

WAYNE          CLEAR     55  53  95 SE3       29.90R
$$

NEZ050>053-065>068-078-088>093-261300-
SOUTHEAST NEBRASKA

CITY           SKY/WX    TMP DP  RH WIND       PRES   REMARKS
LINCOLN        CLEAR     59  56  89 NW5       29.90R
6HR MIN TEMP:  55; 6HR MAX TEMP:  65;

OMAHA EPPLEY   MOSUNNY   60  56  86 CALM      29.88R
6HR MIN TEMP:  59; 6HR MAX TEMP:  72; 6HR PCP:  0.01;

BEATRICE       CLEAR     63  59  86 SE8       29.88R
FALLS CITY     CLEAR     66  61  84 CALM      29.87S
6HR MIN TEMP:  62; 6HR MAX TEMP:  66;

NEBRASKA CITY  CLEAR     64  60  85 E5        29.87F
PLATTSMOUTH    SUNNY     63  60  90 E3        29.88S
$$

NEZ044-045-051>053-067-261300-
OMAHA AREA

CITY           SKY/WX    TMP DP  RH WIND       PRES   REMARKS
OMAHA EPPLEY   MOSUNNY   60  56  86 CALM      29.88R
6HR MIN TEMP:  59; 6HR MAX TEMP:  72; 6HR PCP:  0.01;

BLAIR          SUNNY     60  57  89 CALM      29.88F
FREMONT        CLEAR     59  57  93 CALM      29.89R
MILLARD        CLEAR     58  56  94 CALM      29.89R
OFFUTT AFB     SUNNY     58  58 100 CALM      29.87R
PLATTSMOUTH    SUNNY     63  60  90 E3        29.88S
WAHOO          FAIR      58  56  92 CALM      29.90R
$$




USA.gov is the U.S. government's official web portal to all federal, state and local government web resources and services.